Weather History for Kankakee, IL

Change the Weather History Date:

Monday, December 19, 2011

  Actual Average Record
Temperature  
Mean Temperature 46 °F -  
Max Temperature 51 °F 33 °F 55 °F (2002)
Min Temperature 42 °F 17 °F -13 °F (1983)
Degree Days  
Heating Degree Days 18    
Moisture  
Dew Point 39 °F    
Average Humidity 74    
Maximum Humidity 82    
Minimum Humidity 62    
Precipitation  
Precipitation 0.00 in - - ()
Sea Level Pressure  
Sea Level Pressure 29.97 in    
Wind  
Wind Speed 14 mph (SW)    
Max Wind Speed 20 mph    
Max Gust Speed 25 mph    
Visibility 10 miles    
Events      
Averages and records for this station are not official NWS values.
T = Trace of Precipitation, MM = Missing Value Source: NWS Daily Summary

Daily Weather History Graph

Daily Weather History Graph

Search for Another Location

Airport:

Trip Planner

Search our weather history database for the weather conditions in past years. The results will help you decide how hot, cold, wet, or windy it might be!

Date:

Astronomy

Dec. 19, 2011 Rise Set
Actual Time 7:11 AM CST 4:25 PM CST
Civil Twilight 6:40 AM CST 4:56 PM CST
Nautical Twilight 6:05 AM CST 5:30 PM CST
Astronomical Twilight 5:32 AM CST 6:04 PM CST
Moon 1:19 AM CST 12:25 PM CST
Length of Visible Light 10h 15m
Length of Day
9h 13m
Waning Crescent, 31% of the Moon is Illuminated
Dec 19
Waning Crescent
Dec 24
New
Jan 1
First Quarter
Jan 9
Full
Jan 16
Last Quarter

Hourly Weather History & Observations

Time (CST) Temp. Windchill Dew Point Humidity Pressure Visibility Wind Dir Wind Speed Gust Speed Precip Events Conditions
12:15 AM 42.8 °F 34.3 °F 35.6 °F 76% 29.94 in 10.0 mi SSW 19.6 mph 25.3 mph N/A   Overcast
12:35 AM 42.8 °F 35.1 °F 35.6 °F 76% 29.94 in 10.0 mi SSW 16.1 mph 25.3 mph N/A   Overcast
12:55 AM 42.8 °F 35.1 °F 35.6 °F 76% 29.93 in 10.0 mi SSW 16.1 mph 25.3 mph N/A   Overcast
1:15 AM 42.8 °F 34.5 °F 35.6 °F 76% 29.92 in 10.0 mi SSW 18.4 mph 24.2 mph N/A   Overcast
1:35 AM 42.8 °F 34.5 °F 35.6 °F 76% 29.92 in 10.0 mi SSW 18.4 mph 23.0 mph N/A   Overcast
1:55 AM 42.8 °F 35.1 °F 35.6 °F 76% 29.92 in 10.0 mi SSW 16.1 mph 21.9 mph N/A   Overcast
2:15 AM 42.8 °F 35.1 °F 35.6 °F 76% 29.92 in 10.0 mi SSW 16.1 mph 21.9 mph N/A   Overcast
2:35 AM 42.8 °F 35.4 °F 35.6 °F 76% 29.92 in 10.0 mi SSW 15.0 mph 20.7 mph N/A   Overcast
2:55 AM 44.6 °F 37.4 °F 35.6 °F 71% 29.91 in 10.0 mi SSW 16.1 mph 21.9 mph N/A   Overcast
3:15 AM 44.6 °F 37.4 °F 35.6 °F 71% 29.92 in 10.0 mi SSW 16.1 mph 20.7 mph N/A   Overcast
3:35 AM 44.6 °F 38.4 °F 37.4 °F 76% 29.91 in 10.0 mi SSW 12.7 mph 20.7 mph N/A   Overcast
3:55 AM 42.8 °F 36.2 °F 37.4 °F 81% 29.91 in 10.0 mi SSW 12.7 mph 20.7 mph N/A   Overcast
4:15 AM 44.6 °F 37.8 °F 37.4 °F 76% 29.91 in 10.0 mi SSW 15.0 mph - N/A   Overcast
4:35 AM 44.6 °F 37.4 °F 37.4 °F 76% 29.91 in 10.0 mi SSW 16.1 mph 20.7 mph N/A   Overcast
4:55 AM 44.6 °F 37.2 °F 37.4 °F 76% 29.91 in 10.0 mi SSW 17.3 mph 23.0 mph N/A   Overcast
5:15 AM 44.6 °F 37.8 °F 37.4 °F 76% 29.91 in 10.0 mi SSW 15.0 mph 25.3 mph N/A   Overcast
5:35 AM 44.6 °F 37.4 °F 37.4 °F 76% 29.91 in 10.0 mi SSW 16.1 mph - N/A   Overcast
5:55 AM 44.6 °F 38.4 °F 37.4 °F 76% 29.93 in 10.0 mi SSW 12.7 mph - N/A   Overcast
6:15 AM 44.6 °F 38.1 °F 37.4 °F 76% 29.93 in 10.0 mi SSW 13.8 mph - N/A   Overcast
6:35 AM 44.6 °F 38.1 °F 37.4 °F 76% 29.94 in 10.0 mi SSW 13.8 mph - N/A   Overcast
6:55 AM 44.6 °F 38.4 °F 37.4 °F 76% 29.94 in 10.0 mi SW 12.7 mph - N/A   Overcast
7:15 AM 44.6 °F 38.1 °F 37.4 °F 76% 29.95 in 10.0 mi SW 13.8 mph - N/A   Overcast
7:35 AM 44.6 °F 38.8 °F 37.4 °F 76% 29.96 in 10.0 mi SW 11.5 mph - N/A   Overcast
7:55 AM 44.6 °F 38.4 °F 37.4 °F 76% 29.96 in 10.0 mi SW 12.7 mph - N/A   Overcast
8:15 AM 44.6 °F 38.4 °F 37.4 °F 76% 29.97 in 10.0 mi SW 12.7 mph - N/A   Overcast
8:36 AM 46.4 °F 40.4 °F 39.2 °F 76% 29.97 in 10.0 mi SSW 13.8 mph - N/A   Overcast
8:55 AM 46.4 °F 40.7 °F 39.2 °F 76% 29.97 in 10.0 mi SSW 12.7 mph - N/A   Overcast
9:15 AM 46.4 °F 40.4 °F 39.2 °F 76% 29.98 in 10.0 mi SSW 13.8 mph - N/A   Overcast
9:35 AM 46.4 °F 40.4 °F 39.2 °F 76% 29.98 in 10.0 mi SW 13.8 mph - N/A   Overcast
9:55 AM 46.4 °F 41.1 °F 39.2 °F 76% 29.99 in 10.0 mi SW 11.5 mph 20.7 mph N/A   Overcast
10:16 AM 48.2 °F - 41.0 °F 76% 29.99 in 10.0 mi SSW 12.7 mph - N/A   Overcast
10:35 AM 50.0 °F - 41.0 °F 71% 30.00 in 10.0 mi SW 13.8 mph - N/A   Overcast
10:55 AM 50.0 °F - 41.0 °F 71% 29.99 in 10.0 mi SW 13.8 mph - N/A   Overcast
11:15 AM 50.0 °F - 41.0 °F 71% 29.98 in 10.0 mi SW 15.0 mph - N/A   Overcast
11:35 AM 50.0 °F - 42.8 °F 76% 29.98 in 10.0 mi SW 11.5 mph - N/A   Scattered Clouds
11:55 AM 51.8 °F - 42.8 °F 71% 29.97 in 10.0 mi WSW 12.7 mph - N/A   Clear
12:15 PM 51.8 °F - 42.8 °F 71% 29.97 in 10.0 mi WSW 13.8 mph - N/A   Clear
12:35 PM 51.8 °F - 41.0 °F 67% 29.97 in 10.0 mi WSW 16.1 mph 19.6 mph N/A   Clear
12:57 PM 51.8 °F - 39.2 °F 62% 29.97 in 10.0 mi West 11.5 mph 18.4 mph N/A   Clear
1:15 PM 51.8 °F - 39.2 °F 62% 29.97 in 10.0 mi West 15.0 mph - N/A   Clear
1:35 PM 51.8 °F - 41.0 °F 67% 29.97 in 10.0 mi West 11.5 mph - N/A   Mostly Cloudy
1:55 PM 51.8 °F - 39.2 °F 62% 29.97 in 10.0 mi West 10.4 mph - N/A   Overcast
2:15 PM 51.8 °F - 39.2 °F 62% 29.99 in 10.0 mi West 9.2 mph - N/A   Overcast
2:35 PM 51.8 °F - 39.2 °F 62% 30.00 in 10.0 mi West 10.4 mph - N/A   Overcast
2:55 PM 50.0 °F - 39.7 °F 68% 30.01 in 10.0 mi West 9.2 mph - N/A   Overcast
3:15 PM 49.5 °F - 40.5 °F 71% 30.02 in 10.0 mi West 6.9 mph - N/A   Overcast
3:35 PM 49.1 °F - 41.0 °F 74% 30.02 in 10.0 mi West 4.6 mph - N/A   Overcast
3:55 PM 50.0 °F - 41.0 °F 71% 30.03 in 10.0 mi NW 4.6 mph - N/A   Overcast
4:15 PM 48.2 °F - 40.1 °F 74% 30.04 in 10.0 mi NNW 5.8 mph - N/A   Overcast
4:35 PM 47.8 °F - 39.7 °F 74% 30.06 in 10.0 mi NNW 8.1 mph - N/A   Overcast
4:55 PM 47.3 °F - 40.1 °F 76% 30.06 in 10.0 mi NNW 5.8 mph - N/A   Overcast
5:15 PM 46.6 °F - 39.6 °F 77% 30.06 in 10.0 mi NNW 5.8 mph - N/A   Overcast
5:35 PM 44.1 °F 38.1 °F 38.1 °F 80% 30.07 in 10.0 mi NNE 11.5 mph - N/A   Overcast
5:55 PM 43.0 °F 37.7 °F 37.2 °F 80% 30.08 in 10.0 mi NNE 9.2 mph - N/A   Overcast
6:15 PM 42.8 °F 38.0 °F 37.6 °F 82% 30.10 in 10.0 mi NNE 8.1 mph - N/A   Overcast
6:35 PM 42.8 °F 37.5 °F 36.9 °F 80% 30.11 in 10.0 mi NNE 9.2 mph - N/A   Overcast
6:55 PM 42.8 °F 38.0 °F 37.4 °F 81% 30.12 in 10.0 mi NNE 8.1 mph - N/A   Overcast
7:15 PM 42.3 °F 37.3 °F 36.5 °F 80% 30.14 in 10.0 mi NNE 8.1 mph - N/A   Overcast
7:35 PM 42.3 °F 36.8 °F 36.1 °F 79% 30.15 in 10.0 mi NNE 9.2 mph - N/A   Overcast
7:55 PM 42.1 °F 36.1 °F 35.4 °F 77% 30.15 in 10.0 mi NNE 10.4 mph - N/A   Overcast
8:15 PM 41.9 °F 36.9 °F 35.2 °F 77% 30.15 in 10.0 mi NNE 8.1 mph - N/A   Overcast
8:35 PM 41.9 °F 36.9 °F 34.7 °F 76% 30.14 in 10.0 mi NE 8.1 mph - N/A   Overcast
8:55 PM 41.9 °F 35.4 °F 34.3 °F 75% 30.13 in 10.0 mi NE 11.5 mph - N/A   Overcast
9:15 PM 41.5 °F 35.0 °F 34.3 °F 76% 30.13 in 10.0 mi NNE 11.5 mph 18.4 mph N/A   Overcast
9:35 PM 41.4 °F 34.3 °F 34.5 °F 77% 30.14 in 10.0 mi NNE 12.7 mph 17.3 mph N/A   Overcast
9:55 PM 41.4 °F 36.2 °F 34.5 °F 77% 30.15 in 10.0 mi NNE 8.1 mph - N/A   Overcast
10:15 PM 41.2 °F 35.0 °F 34.7 °F 78% 30.17 in 10.0 mi NNE 10.4 mph - N/A   Overcast
10:35 PM 41.0 °F 36.4 °F 34.3 °F 77% 30.18 in 10.0 mi NE 6.9 mph - N/A   Overcast
10:55 PM 40.6 °F 35.4 °F 34.0 °F 77% 30.18 in 10.0 mi NE 8.1 mph - N/A   Overcast
11:15 PM 40.3 °F 34.4 °F 33.8 °F 78% 30.17 in 10.0 mi NE 9.2 mph - N/A   Overcast
11:35 PM 40.1 °F 35.3 °F 33.8 °F 78% 30.17 in 10.0 mi NE 6.9 mph - N/A   Overcast
11:55 PM 40.1 °F 34.1 °F 33.1 °F 76% 30.17 in 10.0 mi NE 9.2 mph - N/A   Overcast